Year,Month,Day,Hour,Minute,Value (Times are PST for temperature in C)
2019,04,08,10,05,9.20
2019,04,08,10,06,9.20
2019,04,08,10,07,9.30
2019,04,08,10,08,9.30
2019,04,08,10,09,9.40
2019,04,08,10,10,9.50
2019,04,08,10,11,9.60
2019,04,08,10,12,9.60
2019,04,08,10,13,9.60
2019,04,08,10,14,9.70
2019,04,08,10,15,9.70
2019,04,08,10,16,9.80
2019,04,08,10,17,9.80
2019,04,08,10,18,9.80
2019,04,08,10,19,9.80
2019,04,08,10,20,9.90
2019,04,08,10,21,9.90
2019,04,08,10,22,9.90
2019,04,08,10,23,10.00
2019,04,08,10,24,10.10
2019,04,08,10,25,10.10
2019,04,08,10,26,10.20
2019,04,08,10,27,10.20
2019,04,08,10,28,10.10
2019,04,08,10,29,10.00
2019,04,08,10,30,9.90
2019,04,08,10,31,9.90
2019,04,08,10,32,9.80
2019,04,08,10,33,9.80
2019,04,08,10,34,9.80
2019,04,08,10,35,9.80
2019,04,08,10,36,9.80
2019,04,08,10,37,9.80
2019,04,08,10,38,9.80
2019,04,08,10,39,9.80
2019,04,08,10,40,9.80
2019,04,08,10,41,9.80
2019,04,08,10,42,9.80
2019,04,08,10,43,9.90
2019,04,08,10,44,10.00
2019,04,08,10,45,10.00
2019,04,08,10,46,10.00
2019,04,08,10,47,10.00
2019,04,08,10,48,10.00
2019,04,08,10,49,10.00
2019,04,08,10,50,10.00
2019,04,08,10,51,9.90
2019,04,08,10,52,9.90
2019,04,08,10,53,10.00
2019,04,08,10,54,9.90
2019,04,08,10,55,9.90
2019,04,08,10,56,9.80
2019,04,08,10,57,9.80
2019,04,08,10,58,9.80
2019,04,08,10,59,9.80
2019,04,08,11,00,9.80
2019,04,08,11,01,9.80
2019,04,08,11,02,9.80
2019,04,08,11,03,9.90
2019,04,08,11,04,9.90
2019,04,08,11,05,9.90
2019,04,08,11,06,9.90
2019,04,08,11,07,9.80
2019,04,08,11,08,9.80
2019,04,08,11,09,9.80
2019,04,08,11,10,9.80
2019,04,08,11,11,9.80
2019,04,08,11,12,9.80
2019,04,08,11,13,9.80
2019,04,08,11,14,9.80
2019,04,08,11,15,9.80
2019,04,08,11,16,9.80
2019,04,08,11,17,9.80
2019,04,08,11,18,9.90
2019,04,08,11,19,9.90
2019,04,08,11,20,9.90
2019,04,08,11,21,9.90
2019,04,08,11,22,9.90
2019,04,08,11,23,9.90
2019,04,08,11,24,9.90
2019,04,08,11,25,9.90
2019,04,08,11,26,9.90
2019,04,08,11,27,9.90
2019,04,08,11,28,10.00
2019,04,08,11,29,9.90
2019,04,08,11,30,9.80
2019,04,08,11,31,9.80
2019,04,08,11,32,9.90
2019,04,08,11,33,9.90
2019,04,08,11,34,9.80
2019,04,08,11,35,9.80
2019,04,08,11,36,9.80
2019,04,08,11,37,9.70
2019,04,08,11,38,9.80
2019,04,08,11,39,9.80
2019,04,08,11,40,9.80
2019,04,08,11,41,9.80
2019,04,08,11,42,9.80
2019,04,08,11,43,9.80
2019,04,08,11,44,9.80
2019,04,08,11,45,9.80
2019,04,08,11,46,9.80
2019,04,08,11,47,9.80
2019,04,08,11,48,9.80
2019,04,08,11,49,9.90
2019,04,08,11,50,9.90
2019,04,08,11,51,9.90
2019,04,08,11,52,9.90
2019,04,08,11,53,9.80
2019,04,08,11,54,9.80
2019,04,08,11,55,9.90
2019,04,08,11,56,9.90
2019,04,08,11,57,10.00
2019,04,08,11,58,10.00
2019,04,08,11,59,10.10
2019,04,08,12,00,10.10
2019,04,08,12,01,10.00
2019,04,08,12,02,10.00
2019,04,08,12,03,9.90
2019,04,08,12,04,9.80
2019,04,08,12,05,9.90
2019,04,08,12,06,9.80
2019,04,08,12,07,9.90
2019,04,08,12,08,9.90
2019,04,08,12,09,9.90
2019,04,08,12,10,9.90
2019,04,08,12,11,9.90
2019,04,08,12,12,9.80
2019,04,08,12,13,9.80
2019,04,08,12,14,9.80
2019,04,08,12,15,9.70
2019,04,08,12,16,9.70
2019,04,08,12,17,9.70
2019,04,08,12,18,9.70
2019,04,08,12,19,9.70
2019,04,08,12,20,9.70
2019,04,08,12,21,9.70
2019,04,08,12,22,9.80
2019,04,08,12,23,9.70
2019,04,08,12,24,9.70
2019,04,08,12,25,9.70
2019,04,08,12,26,9.70
2019,04,08,12,27,9.70
2019,04,08,12,28,9.80
2019,04,08,12,29,9.80
2019,04,08,12,30,9.80
2019,04,08,12,31,9.80
2019,04,08,12,32,9.80
2019,04,08,12,33,9.80
2019,04,08,12,34,9.70
2019,04,08,12,35,9.70
2019,04,08,12,36,9.70
2019,04,08,12,37,9.70
2019,04,08,12,38,9.60
2019,04,08,12,39,9.60
2019,04,08,12,40,9.60
2019,04,08,12,41,9.60
2019,04,08,12,42,9.50
2019,04,08,12,43,9.50
2019,04,08,12,44,9.50
2019,04,08,12,45,9.50
2019,04,08,12,46,9.50
2019,04,08,12,47,9.50
2019,04,08,12,48,9.50
2019,04,08,12,49,9.50
2019,04,08,12,50,9.50
2019,04,08,12,51,9.60
2019,04,08,12,52,9.60
2019,04,08,12,53,9.60
2019,04,08,12,54,9.60
2019,04,08,12,55,9.50
2019,04,08,12,56,9.50
2019,04,08,12,57,9.40
2019,04,08,12,58,9.40
2019,04,08,12,59,9.40
2019,04,08,13,00,9.30
2019,04,08,13,01,9.30
2019,04,08,13,02,9.40
2019,04,08,13,03,9.40
2019,04,08,13,04,9.40
2019,04,08,13,05,9.40
2019,04,08,13,06,9.40
2019,04,08,13,07,9.40
2019,04,08,13,08,9.40
2019,04,08,13,09,9.40
2019,04,08,13,10,9.40
2019,04,08,13,11,9.40
2019,04,08,13,12,9.40
2019,04,08,13,13,9.40
2019,04,08,13,14,9.40
2019,04,08,13,15,9.30
2019,04,08,13,16,9.30
2019,04,08,13,17,9.30
2019,04,08,13,18,9.30
2019,04,08,13,19,9.30
2019,04,08,13,20,9.20
2019,04,08,13,21,9.20
2019,04,08,13,22,9.20
2019,04,08,13,23,9.20
2019,04,08,13,24,9.20
2019,04,08,13,25,9.20
2019,04,08,13,26,9.20
2019,04,08,13,27,9.10
2019,04,08,13,28,9.10
2019,04,08,13,29,9.10
2019,04,08,13,30,9.20
2019,04,08,13,31,9.20
2019,04,08,13,32,9.20
2019,04,08,13,33,9.20
2019,04,08,13,34,9.20
2019,04,08,13,35,9.20
2019,04,08,13,36,9.20
2019,04,08,13,37,9.20
2019,04,08,13,38,9.20
2019,04,08,13,39,9.20
2019,04,08,13,40,9.30
2019,04,08,13,41,9.30
2019,04,08,13,42,9.30
2019,04,08,13,43,9.30
2019,04,08,13,44,9.30
2019,04,08,13,45,9.30
2019,04,08,13,46,9.30
2019,04,08,13,47,9.30
2019,04,08,13,48,9.30
2019,04,08,13,49,9.30
2019,04,08,13,50,9.30
2019,04,08,13,51,9.30
2019,04,08,13,52,9.40
2019,04,08,13,53,9.40
2019,04,08,13,54,9.40
2019,04,08,13,55,9.40
2019,04,08,13,56,9.40
2019,04,08,13,57,9.40
2019,04,08,13,58,9.40
2019,04,08,13,59,9.40
2019,04,08,14,00,9.40
2019,04,08,14,01,9.40
2019,04,08,14,02,9.30
2019,04,08,14,03,9.30
2019,04,08,14,04,9.30
2019,04,08,14,05,9.20
2019,04,08,14,06,9.20
2019,04,08,14,07,9.20
2019,04,08,14,08,9.10
2019,04,08,14,09,9.10
2019,04,08,14,10,9.10
2019,04,08,14,11,9.20
2019,04,08,14,12,9.20
2019,04,08,14,13,9.20
2019,04,08,14,14,9.20
2019,04,08,14,15,9.20
2019,04,08,14,16,9.20
2019,04,08,14,17,9.20
2019,04,08,14,18,9.10
2019,04,08,14,19,9.10
2019,04,08,14,20,9.10
2019,04,08,14,21,9.00
2019,04,08,14,22,9.00
2019,04,08,14,23,9.00
2019,04,08,14,24,8.90
2019,04,08,14,25,8.90
2019,04,08,14,26,8.90
2019,04,08,14,27,8.90
2019,04,08,14,28,8.90
2019,04,08,14,29,8.90
2019,04,08,14,30,8.90
2019,04,08,14,31,8.90
2019,04,08,14,32,9.00
2019,04,08,14,33,8.90
2019,04,08,14,34,8.90
2019,04,08,14,35,8.90
2019,04,08,14,36,9.00
2019,04,08,14,37,9.00
2019,04,08,14,38,9.00
2019,04,08,14,39,9.00
2019,04,08,14,40,9.00
2019,04,08,14,41,9.10
2019,04,08,14,42,9.10
2019,04,08,14,43,9.00
2019,04,08,14,44,9.10
2019,04,08,14,45,9.10
2019,04,08,14,46,9.10
2019,04,08,14,47,9.10
2019,04,08,14,48,9.10
2019,04,08,14,49,9.10
2019,04,08,14,50,9.10
2019,04,08,14,51,9.10
2019,04,08,14,52,9.10
2019,04,08,14,53,9.10
2019,04,08,14,54,9.10
2019,04,08,14,55,9.10
2019,04,08,14,56,9.20
2019,04,08,14,57,9.20
2019,04,08,14,58,9.10
2019,04,08,14,59,9.10
2019,04,08,15,00,9.10
2019,04,08,15,01,9.10
2019,04,08,15,02,9.00
2019,04,08,15,03,9.00
2019,04,08,15,04,9.00
2019,04,08,15,05,9.00
2019,04,08,15,06,9.00
2019,04,08,15,07,9.00
2019,04,08,15,08,8.90
2019,04,08,15,09,8.90
2019,04,08,15,10,8.90
2019,04,08,15,11,8.90
2019,04,08,15,12,8.90
2019,04,08,15,13,9.00
2019,04,08,15,14,9.00
2019,04,08,15,15,8.90
2019,04,08,15,16,8.90
2019,04,08,15,17,8.90
2019,04,08,15,18,8.90
2019,04,08,15,19,8.90
2019,04,08,15,20,8.90
2019,04,08,15,21,8.90
2019,04,08,15,22,8.90
2019,04,08,15,23,8.90
2019,04,08,15,24,8.90
2019,04,08,15,25,8.90
2019,04,08,18,49,9.10
2019,04,08,18,50,9.10
2019,04,08,18,51,9.10
2019,04,08,18,52,9.10
2019,04,08,18,53,9.10
2019,04,08,18,54,9.10
2019,04,08,18,55,9.10
2019,04,08,18,56,9.10
2019,04,08,18,57,9.10
2019,04,08,18,58,9.10
2019,04,08,18,59,9.10
2019,04,08,19,00,9.10
2019,04,08,19,01,9.10
2019,04,08,19,02,9.10
2019,04,08,19,03,9.10
2019,04,08,19,04,9.10
2019,04,08,19,05,9.10
2019,04,08,19,06,9.10
2019,04,08,19,07,9.10
